Weather History for Quincy, IL

Change the Weather History Date:

Tuesday, September 3, 2013

  Actual Average Record
Temperature  
Mean Temperature 67 °F 71 °F  
Max Temperature 82 °F 82 °F 103 °F (1913)
Min Temperature 51 °F 61 °F 41 °F (1952)
Degree Days  
Heating Degree Days 0 1  
Month to date heating degree days 0 2  
Since 1 July heating degree days 6 7  
Cooling Degree Days 2 7  
Month to date cooling degree days 22 21  
Year to date cooling degree days 1028 974  
Growing Degree Days 16 (Base 50)    
Moisture  
Dew Point 51 °F    
Average Humidity 61    
Maximum Humidity 96    
Minimum Humidity 26    
Precipitation  
Precipitation 0.00 in 0.11 in 2.78 in (1936)
Month to date precipitation 0.00 0.33  
Year to date precipitation 28.10 26.08  
Sea Level Pressure  
Sea Level Pressure 30.05 in    
Wind  
Wind Speed 3 mph (NE)    
Max Wind Speed 10 mph    
Max Gust Speed 13 mph    
Visibility 10 miles    
Events      
T = Trace of Precipitation, MM = Missing Value Source: NWS Daily Summary

Daily Weather History Graph

Daily Weather History Graph

Search for Another Location

Airport:

Trip Planner

Search our weather history database for the weather conditions in past years. The results will help you decide how hot, cold, wet, or windy it might be!

Date:

Astronomy

Sep. 03, 2013 Rise Set
Actual Time 6:34 AM CDT 7:32 PM CDT
Civil Twilight 6:07 AM CDT 8:00 PM CDT
Nautical Twilight 5:34 AM CDT 8:32 PM CDT
Astronomical Twilight 5:00 AM CDT 9:06 PM CDT
Moon 4:48 AM CDT (9/3) 6:19 PM CDT (9/3)
Length of Visible Light 13h 53m
Length of Day
12h 57m
Waning Crescent, 3% of the Moon is Illuminated
Sep 3
Waning Crescent
Sep 5
New
Sep 12
First Quarter
Sep 19
Full
Sep 26
Last Quarter

Hourly Weather History & Observations

Time (CDT) Temp. Dew Point Humidity Pressure Visibility Wind Dir Wind Speed Gust Speed Precip Events Conditions
12:54 AM 57.9 °F 52.0 °F 81% 30.00 in 10.0 mi North 6.9 mph - N/A   Clear
1:54 AM 55.9 °F 51.1 °F 84% 30.01 in 10.0 mi NNE 5.8 mph - N/A   Clear
2:54 AM 55.0 °F 51.1 °F 86% 30.01 in 10.0 mi NNE 5.8 mph - N/A   Clear
3:54 AM 53.1 °F 51.1 °F 93% 30.02 in 10.0 mi NNE 6.9 mph - N/A   Clear
4:54 AM 53.1 °F 50.0 °F 89% 30.03 in 10.0 mi NNE 4.6 mph - N/A   Clear
5:54 AM 52.0 °F 48.9 °F 89% 30.05 in 10.0 mi NNE 5.8 mph - N/A   Clear
6:54 AM 52.0 °F 50.0 °F 93% 30.07 in 10.0 mi NNE 5.8 mph - N/A   Clear
7:54 AM 57.0 °F 53.1 °F 87% 30.09 in 10.0 mi NNE 5.8 mph - N/A   Clear
8:54 AM 63.0 °F 55.9 °F 78% 30.09 in 10.0 mi NE 3.5 mph - N/A   Clear
9:54 AM 68.0 °F 57.0 °F 68% 30.10 in 10.0 mi Calm Calm - N/A   Clear
10:54 AM 71.1 °F 55.0 °F 57% 30.10 in 10.0 mi East 3.5 mph - N/A   Clear
11:54 AM 73.9 °F 53.1 °F 48% 30.10 in 10.0 mi Calm Calm - N/A   Clear
12:54 PM 77.0 °F 53.1 °F 43% 30.08 in 10.0 mi Variable 3.5 mph - N/A   Clear
1:54 PM 75.9 °F 50.0 °F 40% 30.07 in 10.0 mi Calm Calm - N/A   Clear
2:54 PM 79.0 °F 50.0 °F 36% 30.05 in 10.0 mi Calm Calm - N/A   Clear
3:54 PM 80.1 °F 50.0 °F 35% 30.03 in 10.0 mi North 4.6 mph - N/A   Clear
4:54 PM 81.0 °F 46.0 °F 29% 30.03 in 10.0 mi Variable 4.6 mph - N/A   Clear
5:54 PM 80.1 °F 43.0 °F 27% 30.03 in 10.0 mi Calm Calm - N/A   Clear
6:54 PM 79.0 °F 46.9 °F 32% 30.02 in 10.0 mi NE 3.5 mph - N/A   Clear
7:54 PM 73.0 °F 50.0 °F 44% 30.03 in 10.0 mi Calm Calm - N/A   Clear
8:54 PM 70.0 °F 48.9 °F 47% 30.03 in 10.0 mi Calm Calm - N/A   Clear
9:54 PM 69.1 °F 51.1 °F 53% 30.04 in 10.0 mi Calm Calm - N/A   Clear
10:54 PM 62.1 °F 52.0 °F 70% 30.04 in 10.0 mi ENE 3.5 mph - N/A   Clear
11:54 PM 66.0 °F 54.0 °F 65% 30.05 in 10.0 mi East 3.5 mph - N/A   Clear